Location: Smithers
(54.7670°N, 127.1670°W)
Time: 22:52:49
(UTC-07:00)

Daily predictions for brighter satellites

Satellite Brightness Start Highest point End
(mag) Time Altitude Azimuth Time Altitude Azimuth Time Altitude Azimuth
Cosmos 407 Rocket 4.4 22:33:44 10° SSE 22:38:15 30° ESE 22:42:44 10° NE
NOAA 11 4.3 22:33:00 10° SSE 22:38:26 88° ENE 22:43:54 10° NNW
USA 234 4.0 22:36:51 10° SSE 22:42:59 41° SW 22:49:08 10° WNW
SL-08 RB Rocket 3.7 22:38:36 10° SSE 22:43:10 90° SSW 22:47:43 10° NNW
Lacrosse 5 rocket 1.4 22:39:11 10° WSW 22:43:11 88° NNW 22:47:26 10° ENE
Cosmos 2263 4.4 22:39:06 10° NW 22:44:43 73° WSW 22:50:20 10° SSE
H-2A R/B 4.5 22:42:06 10° SW 22:45:17 20° W 22:48:32 10° NW
Cosmos 1515 3.7 22:41:33 10° S 22:45:25 83° E 22:49:18 10° NNE
Meteor 1-22 Rocket 4.3 22:44:46 10° NNW 22:50:18 83° WSW 22:56:02 10° S
SPOT 5 4.2 22:46:41 10° SSW 22:50:33 31° W 22:54:26 10° NNW
Landsat 7 3.9 22:46:04 10° SSE 22:50:49 82° ENE 22:55:37 10° NNW
USA 81 4.4 22:46:47 10° N 22:52:05 71° W 22:57:20 10° S
Spot 4 4.2 22:48:46 10° SE 22:53:25 56° ENE 22:58:08 10° N
YAOGAN 6 3.7 22:50:23 10° S 22:53:57 42° W 22:57:34 10° NNW
Cosmos 1634 Rocket 4.3 22:50:07 10° NNW 22:56:17 69° W 23:02:24 10° S
COSMOS 2455 2.9 22:55:16 10° SSW 23:01:14 68° SE 23:07:14 10° NE
Cosmos 1603 3.9 22:56:14 10° SW 23:01:52 81° NW 23:07:31 10° NNE
Cosmos 1066 Rocket 4.3 22:56:33 10° S 23:02:17 79° E 23:08:09 10° NNE
Lacrosse 5 2.3 22:57:22 10° W 23:02:26 68° N 23:07:30 10° E
Cosmos 1346 Rocket 2.8 23:01:03 10° S 23:04:55 65° E 23:08:52 10° NNE
Terra 1.9 23:01:52 10° SSE 23:06:38 82° ENE 23:11:26 10° NNW
Cosmos 2084 3.4 23:03:00 10° NW 23:07:03 69° SW 23:11:07 11° SE
IGS 5A 3.5 23:04:08 10° SSE 23:08:17 77° ENE 23:12:28 10° NNW
Cosmos 1953 Rocket 3.6 23:08:18 10° S 23:12:43 85° ESE 23:17:14 10° NNE
SAR-Lupe-2 3.8 23:14:05 10° S 23:17:39 66° WSW 23:21:16 10° NNW
Cosmos 2221 4.2 23:14:23 10° N 23:17:52 23° ENE 23:21:18 10° ESE
Cosmos 1842 3.6 23:14:46 10° S 23:18:32 49° E 23:22:21 10° NNE
Cosmos 2279 Rocket 4.2 23:13:13 10° NNW 23:19:29 77° W 23:25:44 10° S
Geosat 4.3 23:15:28 10° NE 23:20:22 48° ESE 23:25:14 10° S
Lacrosse 4 Rocket 1.8 23:16:58 10° S 23:20:46 40° ESE 23:24:40 10° NE
Cosmos-2242 3.1 23:16:44 10° NNW 23:21:11 88° WSW 23:25:25 11° S
Cosmos 1943 Rocket 2.4 23:17:11 10° NW 23:22:42 68° WSW 23:27:52 12° SSE
H-2A R/B 2.2 23:19:02 10° S 23:24:01 71° WSW 23:29:09 10° NNW
Cosmos 1758 3.4 23:20:05 10° N 23:24:14 82° E 23:27:57 12° SSE
Cosmos 1943 3.2 23:19:29 10° SSW 23:25:09 75° ESE 23:30:53 10° NE
Cosmos 1570 Rocket 4.1 23:20:09 10° NNW 23:25:33 87° ENE 23:30:26 13° SSE
SL-24 R/B 4.5 23:25:08 10° N 23:30:01 90° E 23:35:11 10° S
Cosmos 1190 Rocket 4.0 23:26:51 10° SSW 23:32:11 85° ESE 23:37:33 10° NNE
CZ-4B R/B 4.3 23:27:30 10° N 23:32:23 52° WNW 23:37:22 10° SW
Cosmos 1766 4.2 23:29:30 10° NNW 23:33:19 44° W 23:37:07 10° SSW
Meteor 1-21 4.3 23:29:18 10° S 23:35:06 85° ESE 23:40:59 10° NNE
Cosmos 1656 Rocket 3.7 23:31:49 10° NNW 23:37:34 88° ENE 23:42:37 14° SSE
Cosmos 1733 4.2 23:35:11 10° N 23:38:50 37° ENE 23:41:50 14° SE
DMSP B5D2-2 4.1 23:37:19 10° NNE 23:42:38 71° ESE 23:47:54 10° S
Cosmos 1758 Rocket 4.1 23:42:35 10° SSW 23:46:55 58° WNW 23:51:14 10° N
Cosmos 676 Rocket 4.0 23:43:30 10° SSW 23:48:50 75° ESE 23:54:10 10° NNE
Cosmos 1140 Rocket 3.9 23:48:51 13° S 23:53:20 46° ESE 23:58:21 10° NE
COSMOS 2487 4.1 23:55:28 16° SE 23:57:03 20° ESE 23:59:47 10° NE
